FW4540 Weather Reports


Display with metric or nautical units.
time (UTC)temp
F
wind
direction
speed
MPH
gust
MPH
rain 1hr
in
rain 24hr
in
rain mn
in
humidity
%
barometer
mb
20260906155011 88 0 0.0 0.0 0.00 0.00 0.00 35 19.5
20260906154011 88 157 0.0 1.0 0.00 0.00 0.00 34 19.6
20260906153012 88 0 0.0 0.0 0.00 0.00 0.00 34 19.7
20260906152011 88 112 1.0 3.0 0.00 0.00 0.00 34 19.7
20260906151012 88 112 2.0 4.0 0.00 0.00 0.00 34 19.8
20260906150012 87 90 1.0 3.0 0.00 0.00 0.00 35 19.8
20260906145012 87 90 1.0 4.0 0.00 0.00 0.00 35 19.9
20260906144011 88 67 1.0 3.0 0.00 0.00 0.00 36 20.0
20260906143011 88 112 3.0 7.0 0.00 0.00 0.00 35 20.1
20260906140012 88 270 2.0 7.0 0.00 0.00 0.00 37 20.4
20260906135011 88 225 1.0 4.0 0.00 0.00 0.00 37 20.5
20260906133011 86 202 1.0 5.0 0.00 0.00 0.00 39 20.6
20260906132012 86 180 2.0 6.0 0.00 0.00 0.00 40 20.7
20260906130012 85 180 0.0 3.0 0.00 0.00 0.00 43 20.9
20260906125012 85 157 5.0 8.0 0.00 0.00 0.00 39 21.0
20260906124011 85 270 2.0 8.0 0.00 0.00 0.00 43 21.1
20260906123011 84 247 3.0 9.0 0.00 0.00 0.00 43 21.2
20260906122011 83 157 2.0 5.0 0.00 0.00 0.00 48 21.3
20260906121011 83 135 3.0 7.0 0.00 0.00 0.00 48 21.3
20260906120012 83 135 2.0 5.0 0.00 0.00 0.00 48 21.3
20260906114011 80 135 1.0 3.0 0.00 0.00 0.00 53 21.6
20260906113011 81 135 1.0 3.0 0.00 0.00 0.00 53 21.6
20260906111011 81 90 1.0 5.0 0.00 0.00 0.00 53 21.9
20260906110012 79 67 3.0 6.0 0.00 0.00 0.00 54 22.0
20260906105011 78 45 1.0 5.0 0.00 0.00 0.00 57 22.1
20260906103011 77 45 2.0 5.0 0.00 0.00 0.00 57 22.4
20260906102011 76 67 2.0 5.0 0.00 0.00 0.00 59 22.6
20260906101011 76 157 1.0 3.0 0.00 0.00 0.00 58 22.8
20260906100012 74 157 0.0 2.0 0.00 0.00 0.00 60 23.0
20260906093012 74 90 0.0 2.0 0.00 0.00 0.00 60 23.2
20260906092011 72 45 2.0 5.0 0.00 0.00 0.00 63 23.2
20260906091011 71 45 0.0 3.0 0.00 0.00 0.00 64 23.3
20260906090011 71 247 1.0 4.0 0.00 0.00 0.00 64 23.3
20260906085011 71 270 1.0 4.0 0.00 0.00 0.00 66 23.6
20260906084011 70 270 0.0 3.0 0.00 0.00 0.00 65 23.6
20260906083012 68 247 0.0 3.0 0.00 0.00 0.00 68 23.6
20260906082011 67 202 0.0 3.0 0.00 0.00 0.00 69 23.5
20260906081011 67 157 0.0 2.0 0.00 0.00 0.00 70 23.5
20260906080011 67 270 0.0 4.0 0.00 0.00 0.00 70 23.6
20260906074011 66 337 0.0 3.0 0.00 0.00 0.00 71 23.4
20260906073011 65 67 2.0 6.0 0.00 0.00 0.00 71 23.2
20260906072011 64 45 2.0 5.0 0.00 0.00 0.00 71 23.3
20260906071014 64 45 0.0 2.0 0.00 0.00 0.00 72 23.4
20260906070011 63 360 0.0 4.0 0.00 0.00 0.00 72 23.5
20260906065012 63 0 0.0 0.0 0.00 0.00 0.00 73 23.6
20260906063011 61 0 0.0 0.0 0.00 0.00 0.00 74 23.4
20260906062011 60 0 0.0 0.0 0.00 0.00 0.00 76 23.4
20260906061011 59 0 0.0 0.0 0.00 0.00 0.00 77 23.4
20260906060011 59 0 0.0 0.0 0.00 0.00 0.00 78 23.3
20260906055011 58 0 0.0 0.0 0.00 0.00 0.00 80 23.2
20260906054011 57 0 0.0 0.0 0.00 0.00 0.00 80 23.3
20260906053011 57 0 0.0 0.0 0.00 0.00 0.00 80 23.1
20260906052011 57 360 1.0 3.0 0.00 0.00 0.00 80 22.9
20260906051011 57 22 1.0 4.0 0.00 0.00 0.00 80 22.8
20260906050018 57 0 0.0 0.0 0.00 0.00 0.00 81 22.8
20260906044010 57 360 1.0 4.0 0.00 0.00 0.00 81 22.8
20260906043011 57 360 0.0 3.0 0.00 0.00 0.00 81 22.8
20260906042011 57 0 0.0 0.0 0.00 0.00 0.00 82 22.9
20260906041011 56 0 0.0 0.0 0.00 0.00 0.00 84 22.9
20260906035011 58 360 0.0 1.0 0.00 0.00 0.00 82 23.0
20260906034011 58 360 0.0 1.0 0.00 0.00 0.00 82 23.0
20260906033011 58 0 0.0 0.0 0.00 0.00 0.00 83 23.0
20260906032011 57 360 0.0 1.0 0.00 0.00 0.00 84 23.1
20260906031011 57 0 0.0 0.0 0.00 0.00 0.00 84 23.1
20260906030011 58 0 0.0 0.0 0.00 0.00 0.00 83 23.2
20260906025011 59 0 0.0 0.0 0.00 0.00 0.00 82 23.1
20260906024011 59 360 0.0 2.0 0.00 0.00 0.00 82 23.1
20260906023011 60 0 0.0 0.0 0.00 0.00 0.00 81 23.2
20260906022011 60 0 0.0 0.0 0.00 0.00 0.00 81 23.1
20260906021011 60 360 0.0 1.0 0.00 0.00 0.00 81 23.1
20260906020011 61 360 1.0 5.0 0.00 0.00 0.00 80 23.1
20260906015010 61 360 0.0 2.0 0.00 0.00 0.00 81 23.0
20260906014010 61 337 0.0 3.0 0.00 0.00 0.00 81 23.1
20260906013010 61 0 0.0 0.0 0.00 0.00 0.00 82 23.1
20260906012010 61 0 0.0 0.0 0.00 0.00 0.00 82 23.3
20260906011010 61 0 0.0 0.0 0.00 0.00 0.00 81 23.1
20260906010011 61 0 0.0 0.0 0.00 0.00 0.00 81 23.1
20260906005010 62 0 0.0 0.0 0.00 0.00 0.00 80 23.2
20260906004010 63 0 0.0 0.0 0.00 0.00 0.00 78 23.1
20260906003010 63 0 0.0 0.0 0.00 0.00 0.00 78 23.2
20260906002010 63 0 0.0 0.0 0.00 0.00 0.00 79 23.2
20260906001010 63 0 0.0 0.0 0.00 0.00 0.00 78 23.3
20260906000011 64 0 0.0 0.0 0.00 0.00 0.00 78 23.2
20260905235010 64 0 0.0 0.0 0.00 0.00 0.00 77 23.2
20260905234010 65 0 0.0 0.0 0.00 0.00 0.00 77 23.3
20260905233010 65 22 0.0 3.0 0.00 0.00 0.00 76 23.3
20260905232010 65 22 0.0 3.0 0.00 0.00 0.00 78 23.3
20260905231010 65 22 0.0 4.0 0.00 0.00 0.00 80 23.3
20260905230011 65 0 0.0 0.0 0.00 0.00 0.00 83 23.5
20260905224010 65 0 0.0 0.0 0.00 0.00 0.00 85 23.5
20260905222010 67 0 0.0 0.0 0.00 0.00 0.00 83 23.4
20260905221010 66 0 0.0 0.0 0.00 0.00 0.00 83 23.2
20260905220010 67 0 0.0 0.0 0.00 0.00 0.00 83 23.2
20260905215010 67 0 0.0 0.0 0.00 0.00 0.00 82 23.2
20260905214010 67 0 0.0 0.0 0.00 0.00 0.00 82 23.2
20260905213010 66 0 0.0 0.0 0.00 0.00 0.00 83 23.1
20260905212010 67 0 0.0 0.0 0.00 0.00 0.00 81 23.3
20260905211010 68 0 0.0 0.0 0.00 0.00 0.00 80 23.3
20260905210011 69 0 0.0 0.0 0.00 0.00 0.00 78 23.3
20260905205010 69 0 0.0 0.0 0.00 0.00 0.00 78 23.3
20260905201010 71 45 1.0 3.0 0.00 0.00 0.00 74 23.2
20260905200011 72 45 2.0 4.0 0.00 0.00 0.00 74 23.0
20260905195010 72 22 2.0 4.0 0.00 0.00 0.00 74 22.9
20260905194010 72 22 1.0 3.0 0.00 0.00 0.00 73 23.0
20260905193010 72 0 0.0 0.0 0.00 0.00 0.00 74 22.9
20260905192010 71 0 0.0 0.0 0.00 0.00 0.00 75 22.9
20260905191010 72 0 0.0 0.0 0.00 0.00 0.00 72 22.9
20260905190011 72 0 0.0 0.0 0.00 0.00 0.00 72 22.9
20260905185010 73 0 0.0 0.0 0.00 0.00 0.00 71 22.9
20260905183010 75 0 0.0 0.0 0.00 0.00 0.00 68 22.6
20260905181011 76 360 1.0 5.0 0.00 0.00 0.00 66 22.4
20260905180010 76 45 2.0 5.0 0.00 0.00 0.00 65 22.4
20260905175010 77 45 1.0 4.0 0.00 0.00 0.00 64 22.5
20260905174010 78 45 2.0 6.0 0.00 0.00 0.00 64 22.4
20260905173010 78 45 3.0 6.0 0.00 0.00 0.00 63 22.4
20260905172010 78 45 3.0 6.0 0.00 0.00 0.00 63 22.3
20260905171010 78 45 2.0 8.0 0.00 0.00 0.00 62 22.3
20260905170013 79 45 2.0 5.0 0.00 0.00 0.00 62 22.3
20260905164010 80 45 2.0 5.0 0.00 0.00 0.00 60 22.3
20260905163010 80 360 2.0 5.0 0.00 0.00 0.00 60 22.3
20260905162010 80 45 3.0 5.0 0.00 0.00 0.00 59 22.2